TimeAEST,TemperatureF,Dew PointF,Humidity,Sea Level PressureIn,VisibilityMPH,Wind Direction,Wind SpeedMPH,Gust SpeedMPH,PrecipitationIn,Events,Conditions,WindDirDegrees,DateUTC
12:00 AM,67,64,87,30.03,,WSW,2.3,,,,,250,2013-03-28 14:00:00
12:00 AM,66.2,64.4,94,30.01,6.2,WSW,2.3,-,N/A,,Scattered Clouds,250,2013-03-28 14:00:00
12:30 AM,66.2,64.4,94,30.01,6.2,WSW,2.3,-,N/A,,Scattered Clouds,250,2013-03-28 14:30:00
1:00 AM,66.2,64.4,94,29.98,6.2,WSW,3.5,-,N/A,,Scattered Clouds,250,2013-03-28 15:00:00
1:30 AM,66.2,64.4,94,29.98,6.2,WNW,5.8,-,N/A,,Scattered Clouds,290,2013-03-28 15:30:00
2:00 AM,68.0,64.4,88,29.98,6.2,WNW,5.8,-,N/A,,Scattered Clouds,290,2013-03-28 16:00:00
2:30 AM,68.0,64.4,88,29.98,6.2,WNW,5.8,-,N/A,,Mostly Cloudy,290,2013-03-28 16:30:00
3:00 AM,69,65,83,29.96,,NW,6.9,,,,,310,2013-03-28 17:00:00
3:00 AM,69.8,64.4,83,29.95,6.2,NW,6.9,-,N/A,,Scattered Clouds,310,2013-03-28 17:00:00
3:30 AM,68.0,64.4,88,29.95,6.2,NW,6.9,-,N/A,,Unknown,310,2013-03-28 17:30:00
4:00 AM,68.0,64.4,88,29.95,6.2,WNW,6.9,-,N/A,,Scattered Clouds,300,2013-03-28 18:00:00
4:30 AM,69.8,64.4,83,29.95,6.2,NW,6.9,-,N/A,,Overcast,310,2013-03-28 18:30:00
5:00 AM,68.0,64.4,88,29.95,6.2,NW,6.9,-,N/A,,Unknown,320,2013-03-28 19:00:00
5:30 AM,68.0,64.4,88,29.95,6.2,WNW,6.9,-,N/A,,Unknown,300,2013-03-28 19:30:00
6:00 AM,69,64,81,29.96,,NNW,6.9,,,,,330,2013-03-28 20:00:00
6:00 AM,68.0,64.4,88,29.95,6.2,NNW,6.9,-,N/A,,Scattered Clouds,330,2013-03-28 20:00:00
6:30 AM,69.8,64.4,83,29.95,6.2,NW,6.9,-,N/A,,Scattered Clouds,320,2013-03-28 20:30:00
7:00 AM,71.6,64.4,78,29.98,6.2,NNW,6.9,-,N/A,,Unknown,330,2013-03-28 21:00:00
7:30 AM,73.4,66.2,78,29.98,6.2,NNW,8.1,-,N/A,,Unknown,330,2013-03-28 21:30:00
8:00 AM,75.2,66.2,73,29.98,6.2,NW,8.1,-,N/A,,Unknown,320,2013-03-28 22:00:00
8:30 AM,77.0,64.4,65,29.98,6.2,NNW,10.4,-,N/A,,Unknown,330,2013-03-28 22:30:00
9:00 AM,79,65,53,29.98,,NNW,9.2,,,,,330,2013-03-28 23:00:00
9:00 AM,78.8,64.4,61,29.98,6.2,NNW,9.2,-,N/A,,Unknown,330,2013-03-28 23:00:00
9:30 AM,78.8,64.4,61,29.98,6.2,NW,9.2,-,N/A,,Unknown,310,2013-03-28 23:30:00
10:00 AM,80.6,64.4,58,29.98,6.2,WNW,6.9,-,N/A,,Scattered Clouds,290,2013-03-29 00:00:00
10:30 AM,82.4,64.4,54,29.98,6.2,West,4.6,-,N/A,,Overcast,280,2013-03-29 00:30:00
11:00 AM,80.6,64.4,58,29.98,6.2,NNE,8.1,-,N/A,,Overcast,30,2013-03-29 01:00:00
11:30 AM,82.4,64.4,54,29.98,6.2,South,9.2,-,N/A,,Mostly Cloudy,170,2013-03-29 01:30:00
12:00 PM,80,65,52,29.98,,SSE,12.7,,,,Overcast,150,2013-03-29 02:00:00
12:00 PM,80.6,66.2,61,29.98,6.2,SSE,12.7,-,N/A,,Mostly Cloudy,150,2013-03-29 02:00:00
12:30 PM,78.8,64.4,61,29.95,6.2,South,12.7,-,N/A,,Overcast,170,2013-03-29 02:30:00
1:00 PM,80.6,66.2,61,29.95,6.2,SSE,12.7,-,N/A,,Scattered Clouds,160,2013-03-29 03:00:00
1:30 PM,78.8,66.2,65,29.95,6.2,South,12.7,-,N/A,,Overcast,170,2013-03-29 03:30:00
2:00 PM,78.8,66.2,65,29.95,6.2,South,10.4,-,N/A,,Overcast,180,2013-03-29 04:00:00
2:30 PM,77.0,68.0,74,29.95,6.2,SSE,12.7,-,N/A,,Scattered Clouds,150,2013-03-29 04:30:00
3:00 PM,76,68,69,29.94,,SSE,11.5,,,,Overcast,150,2013-03-29 05:00:00
3:00 PM,77.0,68.0,74,29.92,6.2,SSE,11.5,-,N/A,,Overcast,150,2013-03-29 05:00:00
3:30 PM,77.0,68.0,74,29.92,6.2,SSE,11.5,-,N/A,,Mostly Cloudy,160,2013-03-29 05:30:00
4:00 PM,77.0,66.2,69,29.95,6.2,SSE,11.5,-,N/A,,Unknown,160,2013-03-29 06:00:00
4:30 PM,75.2,66.2,73,29.95,6.2,South,11.5,-,N/A,,Mostly Cloudy,180,2013-03-29 06:30:00
5:00 PM,73.4,66.2,78,29.95,6.2,South,11.5,-,N/A,,Overcast,180,2013-03-29 07:00:00
5:30 PM,73.4,64.4,73,29.98,6.2,South,12.7,-,N/A,,Overcast,170,2013-03-29 07:30:00
6:00 PM,73,65,70,29.97,,SSE,12.7,,,,Overcast,160,2013-03-29 08:00:00
6:00 PM,73.4,66.2,78,29.95,6.2,SSE,12.7,-,N/A,,Overcast,160,2013-03-29 08:00:00
6:30 PM,71.6,68.0,88,29.98,6.2,SSE,10.4,-,N/A,,Overcast,150,2013-03-29 08:30:00
7:00 PM,71.6,68.0,88,29.98,6.2,SSE,9.2,-,N/A,,Mostly Cloudy,150,2013-03-29 09:00:00
7:30 PM,71.6,66.2,83,30.01,6.2,South,12.7,-,N/A,,Overcast,170,2013-03-29 09:30:00
8:00 PM,69.8,68.0,94,30.01,3.7,South,10.4,-,N/A,,Overcast,170,2013-03-29 10:00:00
8:30 PM,69.8,68.0,94,30.01,6.2,South,6.9,-,N/A,,Overcast,180,2013-03-29 10:30:00
9:00 PM,69,67,93,30.03,4,South,8.1,,,,Overcast,180,2013-03-29 11:00:00
9:00 PM,69.8,68.0,94,30.01,4.3,South,8.1,-,N/A,,Overcast,170,2013-03-29 11:00:00
9:30 PM,69.8,66.2,88,30.01,6.2,South,8.1,-,N/A,,Overcast,170,2013-03-29 11:30:00
10:00 PM,69.8,66.2,88,30.01,6.2,SSW,6.9,-,N/A,,Overcast,200,2013-03-29 12:00:00
11:00 PM,69.8,66.2,88,30.01,6.2,SSW,4.6,-,N/A,,Overcast,200,2013-03-29 13:00:00
11:30 PM,69.8,66.2,88,30.01,6.2,SSW,6.9,-,N/A,,Overcast,200,2013-03-29 13:30:00